When you browse on this site, cookies collect data to enhance your experience and personalize the content and advertising you see.
Visit our Privacy Policy to learn more. By continuing to use the site, you agree to this use of cookies and data.
  • In Portugal
  • List of Countries
  • For 7 days
  • Water Temperature
  • Satellite Maps
  • Weather Map
  • Weather Widgets
  • user-avatar
    Login

    Hourly Weather Encamp

    Today, 25 March, Monday

    Time Temperature Precipitation Wind Pressure Humidity
    00:00 +3°C° 0 mm 1 mps 624 mmHg 83%
    01:00 +2°C° 0 mm 1 mps 624 mmHg 81%
    02:00 +2°C° 0 mm 1 mps 624 mmHg 79%
    03:00 +2°C° 0 mm 1 mps 624 mmHg 77%
    04:00 +1°C° 0 mm 1 mps 623 mmHg 76%
    05:00 -1°C° 0 mm 2 mps 623 mmHg 75%
    06:00 +1°C° 0 mm 1 mps 623 mmHg 72%
    07:00 +2°C° 0 mm 2 mps 624 mmHg 65%
    08:00 +4°C° 0 mm 2 mps 625 mmHg 59%
    09:00 +7°C° 0 mm 2 mps 626 mmHg 52%
    10:00 +8°C° 0 mm 2 mps 626 mmHg 51%
    11:00 +8°C° 0 mm 2 mps 626 mmHg 50%
    12:00 +9°C° 0 mm 3 mps 627 mmHg 46%
    13:00 +9°C° 0 mm 3 mps 626 mmHg 43%
    14:00 +9°C° 0 mm 3 mps 626 mmHg 41%
    15:00 +7°C° 0 mm 4 mps 625 mmHg 39%
    16:00 +5°C° 0 mm 3 mps 624 mmHg 48%
    17:00 +3°C° 0 mm 3 mps 623 mmHg 58%
    18:00 +1°C° 0 mm 3 mps 623 mmHg 67%
    19:00 0°C° 0 mm 3 mps 623 mmHg 73%
    20:00 0°C° 0 mm 3 mps 623 mmHg 79%
    21:00 -2°C° 0 mm 4 mps 623 mmHg 85%
    22:00 -2°C° 0 mm 4 mps 623 mmHg 85%
    23:00 -3°C° 0 mm 4 mps 623 mmHg 85%

    Tomorrow, 26 March, Tuesday

    Time Temperature Precipitation Wind Pressure Humidity
    00:00 -3°C° 0 mm 4 mps 624 mmHg 85%
    01:00 -2°C° 0 mm 3 mps 624 mmHg 85%
    02:00 -4°C° 0 mm 3 mps 623 mmHg 84%
    03:00 -4°C° 0 mm 3 mps 623 mmHg 84%
    04:00 -5°C° 0 mm 3 mps 623 mmHg 79%
    05:00 -5°C° 0 mm 3 mps 623 mmHg 73%
    06:00 -6°C° 0 mm 3 mps 623 mmHg 68%
    07:00 -4°C° 0 mm 3 mps 624 mmHg 52%
    08:00 -2°C° 0 mm 4 mps 625 mmHg 37%
    09:00 +1°C° 0 mm 4 mps 626 mmHg 22%
    10:00 +3°C° 0 mm 4 mps 626 mmHg 20%
    11:00 +4°C° 0 mm 4 mps 627 mmHg 18%
    12:00 +5°C° 0 mm 4 mps 627 mmHg 17%
    13:00 +5°C° 0 mm 4 mps 626 mmHg 19%
    14:00 +5°C° 0 mm 4 mps 626 mmHg 22%
    15:00 +5°C° 0 mm 4 mps 626 mmHg 25%
    16:00 +3°C° 0 mm 4 mps 625 mmHg 34%
    17:00 +1°C° 0 mm 3 mps 625 mmHg 42%
    18:00 -1°C° 0 mm 2 mps 624 mmHg 51%
    19:00 -2°C° 0 mm 2 mps 624 mmHg 56%
    20:00 -2°C° 0 mm 2 mps 625 mmHg 60%
    21:00 -3°C° 0 mm 2 mps 625 mmHg 65%
    22:00 -3°C° 0 mm 2 mps 625 mmHg 64%
    23:00 -3°C° 0 mm 2 mps 625 mmHg 63%

    Day after tomorrow, 27 March, Wednesday

    Time Temperature Precipitation Wind Pressure Humidity
    00:00 -3°C° 0 mm 2 mps 625 mmHg 62%
    01:00 -3°C° 0 mm 2 mps 625 mmHg 61%
    02:00 -3°C° 0 mm 2 mps 625 mmHg 61%
    03:00 -4°C° 0 mm 2 mps 625 mmHg 60%
    04:00 -4°C° 0 mm 2 mps 625 mmHg 55%
    05:00 -4°C° 0 mm 2 mps 625 mmHg 50%
    06:00 -4°C° 0 mm 2 mps 625 mmHg 45%
    07:00 -1°C° 0 mm 2 mps 626 mmHg 36%
    08:00 +3°C° 0 mm 2 mps 627 mmHg 28%
    09:00 +6°C° 0 mm 2 mps 629 mmHg 20%
    10:00 +7°C° 0 mm 2 mps 629 mmHg 21%
    11:00 +8°C° 0 mm 2 mps 629 mmHg 21%
    12:00 +9°C° 0 mm 2 mps 629 mmHg 22%
    13:00 +9°C° 0 mm 2 mps 629 mmHg 25%
    14:00 +9°C° 0 mm 2 mps 628 mmHg 28%
    15:00 +8°C° 0 mm 2 mps 628 mmHg 31%
    16:00 +6°C° 0 mm 2 mps 627 mmHg 41%
    17:00 +4°C° 0 mm 2 mps 627 mmHg 50%
    18:00 +2°C° 0 mm 2 mps 626 mmHg 60%
    19:00 +1°C° 0 mm 2 mps 626 mmHg 65%
    20:00 -1°C° 0 mm 2 mps 626 mmHg 70%
    21:00 -2°C° 0 mm 2 mps 627 mmHg 76%
    22:00 -2°C° 0 mm 2 mps 627 mmHg 75%
    23:00 0°C° 0 mm 1 mps 627 mmHg 74%

    28 March, Thursday

    Time Temperature Precipitation Wind Pressure Humidity
    00:00 0°C° 0 mm 1 mps 627 mmHg 73%
    01:00 0°C° 0 mm 1 mps 627 mmHg 77%
    02:00 -2°C° 0 mm 2 mps 627 mmHg 80%
    03:00 -2°C° 0 mm 2 mps 627 mmHg 83%
    04:00 0°C° 0 mm 1 mps 627 mmHg 83%
    05:00 0°C° 0 mm 1 mps 627 mmHg 82%
    06:00 0°C° 0 mm 1 mps 627 mmHg 81%
    07:00 +1°C° 0 mm 2 mps 628 mmHg 69%
    08:00 +4°C° 0 mm 2 mps 629 mmHg 57%
    09:00 +6°C° 0 mm 2 mps 630 mmHg 45%
    10:00 +7°C° 0 mm 2 mps 630 mmHg 43%
    11:00 +9°C° 0 mm 2 mps 631 mmHg 40%
    12:00 +10°C° 0 mm 2 mps 631 mmHg 37%
    13:00 +10°C° 0 mm 2 mps 631 mmHg 40%
    14:00 +9°C° 0 mm 2 mps 630 mmHg 43%
    15:00 +9°C° 0 mm 2 mps 630 mmHg 46%
    16:00 +8°C° 0 mm 1 mps 629 mmHg 56%
    17:00 +6°C° 0 mm 1 mps 628 mmHg 66%
    18:00 +5°C° 0 mm 1 mps 628 mmHg 76%
    19:00 +4°C° 0 mm 1 mps 628 mmHg 80%
    20:00 +3°C° 0 mm 1 mps 628 mmHg 84%
    21:00 +3°C° 0 mm 1 mps 628 mmHg 87%
    22:00 +2°C° 0 mm 1 mps 628 mmHg 89%
    23:00 +2°C° 0 mm 1 mps 628 mmHg 90%

    29 March, Friday

    Time Temperature Precipitation Wind Pressure Humidity
    00:00 +2°C° 0 mm 1 mps 628 mmHg 91%
    01:00 +2°C° 0 mm 1 mps 628 mmHg 91%
    02:00 +2°C° 0 mm 1 mps 627 mmHg 91%
    03:00 +2°C° 0 mm 1 mps 627 mmHg 91%
    04:00 +2°C° 0 mm 1 mps 627 mmHg 91%
    05:00 +2°C° 0 mm 1 mps 627 mmHg 90%
    06:00 +1°C° 0 mm 1 mps 627 mmHg 90%
    07:00 +3°C° 0 mm 1 mps 628 mmHg 77%
    08:00 +4°C° 0 mm 2 mps 629 mmHg 64%
    09:00 +6°C° 0 mm 2 mps 630 mmHg 51%
    10:00 +7°C° 0 mm 2 mps 630 mmHg 47%
    11:00 +8°C° 0 mm 2 mps 630 mmHg 42%
    12:00 +9°C° 0 mm 2 mps 630 mmHg 38%
    13:00 +9°C° 0.1 mm 2 mps 630 mmHg 40%
    14:00 +8°C° 0.1 mm 2 mps 630 mmHg 41%
    15:00 +8°C° 0.1 mm 2 mps 629 mmHg 43%
    16:00 +7°C° 0.1 mm 2 mps 629 mmHg 48%
    17:00 +7°C° 0.1 mm 1 mps 628 mmHg 53%
    18:00 +5°C° 0.1 mm 1 mps 628 mmHg 59%
    19:00 +4°C° 0 mm 1 mps 627 mmHg 64%
    20:00 +3°C° 0 mm 1 mps 627 mmHg 70%
    21:00 +2°C° 0 mm 1 mps 627 mmHg 76%
    22:00 -1°C° 0 mm 2 mps 627 mmHg 75%
    23:00 -1°C° 0 mm 2 mps 626 mmHg 74%

    30 March, Saturday

    Time Temperature Precipitation Wind Pressure Humidity
    00:00 -2°C° 0 mm 2 mps 626 mmHg 74%
    01:00 -2°C° 0 mm 2 mps 626 mmHg 65%
    02:00 -2°C° 0 mm 2 mps 625 mmHg 56%
    03:00 -3°C° 0 mm 2 mps 625 mmHg 47%
    04:00 -3°C° 0 mm 2 mps 625 mmHg 44%
    05:00 -3°C° 0 mm 2 mps 625 mmHg 41%
    06:00 -3°C° 0 mm 2 mps 625 mmHg 37%
    07:00 -1°C° 0 mm 2 mps 626 mmHg 34%
    08:00 +3°C° 0 mm 2 mps 627 mmHg 31%
    09:00 +6°C° 0 mm 2 mps 628 mmHg 27%
    10:00 +7°C° 0 mm 2 mps 628 mmHg 27%
    11:00 +8°C° 0 mm 2 mps 628 mmHg 27%
    12:00 +9°C° 0 mm 2 mps 628 mmHg 27%
    13:00 +9°C° 0 mm 2 mps 628 mmHg 30%
    14:00 +9°C° 0 mm 2 mps 627 mmHg 32%
    15:00 +9°C° 0 mm 2 mps 627 mmHg 34%
    16:00 +7°C° 0 mm 2 mps 626 mmHg 43%
    17:00 +5°C° 0 mm 2 mps 625 mmHg 52%
    18:00 +4°C° 0 mm 2 mps 625 mmHg 61%
    19:00 +2°C° 0 mm 2 mps 624 mmHg 69%
    20:00 +1°C° 0 mm 2 mps 624 mmHg 77%
    21:00 -1°C° 0 mm 2 mps 624 mmHg 84%
    22:00 +1°C° 0 mm 1 mps 624 mmHg 85%
    23:00 +1°C° 0 mm 1 mps 623 mmHg 85%
    Show more